Lexington Weather

Lexington, Massachusetts, USA

26°F
12/12/2019 5:13pm 
  • Lexington Conditions: Partly cloudy
  • Temperature: 26.1°F / -3.3°CColder 1.9°F than last hour.
  • Dew Point: 20.1°FIncreased 0.2°Fsince last hour.
  • Relative Humidity: 78%Increased 7.0% since last hour.
  • Wind: Wind from WSW WSW 1 mph, 10-min avg: 1 mph, gust: 2 mph
  • Barometer: 30.66 in Steady
  • Visibility: 10 miles
  • Snow Today: 0.0 in
  •   

Regional Weather Roundup
for Boston / Norton, MA

        
000
ASUS41 KBOX 121710
RWRBOX

REGIONAL WEATHER ROUNDUP
NATIONAL WEATHER SERVICE BOSTON/NORTON MA
1200 PM EST THU DEC 12 2019

NOTE:  "FAIR" INDICATES FEW OR NO CLOUDS BELOW 12,000 FEET WITH NO 
SIGNIFICANT WEATHER AND/OR OBSTRUCTIONS TO VISIBILITY.

MAZALL-121800-
EASTERN MASSACHUSETTS
  
CITY           SKY/WX    TMP DP  RH WIND       PRES   REMARKS
BOSTON         PTSUNNY   31  10  41 W9        30.70S WCI  23          
BEVERLY        FAIR      28  10  46 NW10      30.68S WCI  19          
LAWRENCE       FAIR      27   9  46 W8        30.69F WCI  19          
BEDFORD        FAIR      28  10  46 W10       30.68S WCI  19          
BLUE HILL        N/A     26  14  60 W8        30.65S WCI  18          
NORWOOD        FAIR      32  13  45 NW7       30.70S WCI  26          
MARSHFIELD     FAIR      30  14  51 NW8G15    30.69F WCI  23          
PLYMOUTH       FAIR      28  13  53 NW10      30.69S WCI  19          
TAUNTON        FAIR      30  14  51 CALM      30.69F                  
NEW BEDFORD    FAIR      29  15  56 NW7       30.69F WCI  22          
$$

MAZALL-121800-
CAPE COD AND THE ISLANDS
  
CITY           SKY/WX    TMP DP  RH WIND       PRES   REMARKS
FALMOUTH       SUNNY     28  14  54 N10       30.69F WCI  19          
HYANNIS        FAIR      31  16  54 N13       30.67S WCI  21          
CHATHAM        FAIR      31  18  58 N10G16    30.68F WCI  22          
PROVINCETOWN   FAIR      33  16  49 NW14G22   30.69S WCI  23          
NANTUCKET      FAIR      32  18  56 N16       30.67F WCI  21          
MARTHAS VNYRD  FAIR      29  14  53 N12       30.69S WCI  19          
$$
 
MAZALL-121800-
CENTRAL AND WESTERN MASSACHUSETTS
  
CITY           SKY/WX    TMP DP  RH WIND       PRES   REMARKS
WORCESTER      FAIR      24  12  60 W10       30.64R WCI  14          
FITCHBURG      FAIR      27  10  49 NW9       30.68S WCI  18          
ORANGE         FAIR      28  10  46 VRB5      30.67F WCI  23          
SPRINGFIELD    PTSUNNY   28  11  50 W7        30.69S WCI  20          
WESTFIELD      FAIR      28  12  51 W6        30.70S WCI  22          
NORTH ADAMS    FAIR      25   9  50 W3        30.66F                  
PITTSFIELD     FAIR      24  11  57 W7        30.62F WCI  16          
$$
 
RIZALL-121800-
RHODE ISLAND
  
CITY           SKY/WX    TMP DP  RH WIND       PRES   REMARKS
PROVIDENCE     PTSUNNY   30  15  53 N9        30.71F WCI  22          
NEWPORT        FAIR      30  13  49 N12       30.69F WCI  20          
BLOCK ISLAND   FAIR      31  17  56 N6        30.71F WCI  25          
SMITHFIELD     FAIR      29  15  56 NW7       30.68F WCI  22          
WESTERLY       FAIR      32  13  45 N10       30.70F WCI  24          
$$
 
CTZALL-121800-
CONNECTICUT
  
CITY           SKY/WX    TMP DP  RH WIND       PRES   REMARKS
BRADLEY INTL   PTSUNNY   29  13  51 VRB3      30.71F                  
HARTFORD       FAIR      30  13  49 VRB7      30.73F WCI  23          
BRIDGEPORT     FAIR      32  13  45 N8        30.71F WCI  25          
DANBURY        FAIR      28  11  48 VRB6      30.70F WCI  22          
GROTON         FAIR      32  14  47 N10       30.70F WCI  24          
NEW HAVEN      FAIR      33  14  45 N9        30.71F WCI  25          
CHESTER        FAIR      30  12  47 NW12      30.68F WCI  21          
MERIDEN        FAIR      30  12  47 VRB7      30.71F WCI  23          
WILLIMANTIC    FAIR      29  14  53 N5        30.71F WCI  24          
OXFORD         FAIR      28  15  58 NW8       30.68F WCI  20          
$$

MEZ002-015-021-024-NHZ003-005-008-011-012-014-VTZ005-008-121800-
NORTHERN NEW ENGLAND
  
CITY           SKY/WX    TMP DP  RH WIND       PRES   REMARKS
PORTLAND ME    FAIR      30   7  37 VRB7      30.63F WCI  23          
BANGOR ME      FAIR      24   1  36 W10G26    30.58F WCI  14          
CONCORD NH     FAIR      29   5  36 NW7G17    30.64F WCI  22          
MANCHESTER NH  PTSUNNY   29   7  39 W6        30.65F WCI  23          
NASHUA NH      FAIR      29  10  45 NW10      30.68F WCI  20          
PORTSMOUTH NH  PTSUNNY   28   7  39 W9        30.64S WCI  20          
JAFFREY NH     FAIR      24   7  48 W9        30.61F WCI  14          
KEENE NH       FAIR      27  10  49 W9        30.66F WCI  18          
BURLINGTON VT  FAIR      27   9  46 NW7       30.65F WCI  19          
MT. WASHINGTON FOG       -4  -4 100 W61G70      N/A  VSB 1/16WCI -39  
$$

NYZ052-076-121800-
EASTERN NEW YORK
  
CITY           SKY/WX    TMP DP  RH WIND       PRES   REMARKS
ALBANY         FAIR      29  12  49 CALM      30.71F                  
NEW YORK CITY  PTSUNNY   33   4  29 N7        30.71F WCI  27          
$$
 
ANZALL-121800-
MARINE OBSERVATIONS
  
STATION/POSITION TIME  TEMP    WIND        PRES    VSBY  WAVE
                       AIR SEA DIR/SP/G                  HT/PER
                 (UTC) (F)     (DEG/KT/KT) (MB)    (MI)  (FT/S)
BOSTON BUOY      1650   29 46  300/ 12/ 16 1038.6R         2/ 3
BUZZARDS BAY     1600   28     350/ 10/ 12 1040.3F
NANTUCKET SOUND  1640   29 42                N/A
MASS BAY-STELLWA 1604   27 46  340/ 12/ 16 1037.2F  1 7/8  2/ 3
ISLE OF SHOALS   1600   26     280/ 13/ 16 1037.9F
S OF BLOCK IS    1700      52                N/A           4/ 6
$$

......................KEY.........................
  SKY/WX - SKY CONDITION/PRESENT WEATHER
  TMP    - TEMPERATURE IN FAHRENHEIT
  DWPT   - DEWPOINT IN FAHRENHEIT
  RH     - RELATIVE HUMIDITY IN PERCENT
  WIND   - DIRECTION AND SPEED IN MPH
  PRES   - MEAN SEA LEVEL PRESSURE IN INCHES OF HG
  WCI    - WIND CHILL INDEX
  VSB    - VISIBILITY IN MILES
  HX     - HEAT INDEX
  TC     - TEMPERATURE IN CELSIUS
  VRB    - VARIABLE WIND DIRECTION
  N/A    - NOT AVAILABLE
  
      

Other recent Regional Weather Roundups

Thu Dec 12, 5:00pm

Thu Dec 12, 4:10pm

Thu Dec 12, 4:01pm

Thu Dec 12, 3:10pm

Thu Dec 12, 3:00pm

Thu Dec 12, 2:10pm

Thu Dec 12, 2:01pm

Thu Dec 12, 1:10pm

Thu Dec 12, 1:00pm

Thu Dec 12, 12:00pm

Thu Dec 12, 11:10am

Thu Dec 12, 11:00am

Thu Dec 12, 10:10am

Thu Dec 12, 8:10am

Thu Dec 12, 8:00am

Thu Dec 12, 7:10am

Thu Dec 12, 7:00am

Thu Dec 12, 6:10am

Thu Dec 12, 6:00am

Thu Dec 12, 5:10am

Thu Dec 12, 5:00am

Thu Dec 12, 4:10am

Thu Dec 12, 4:00am

Thu Dec 12, 3:10am

Thu Dec 12, 3:00am

Thu Dec 12, 2:10am

Thu Dec 12, 2:00am

Thu Dec 12, 1:10am

Thu Dec 12, 1:00am

Thu Dec 12, 12:10am

Thu Dec 12, 12:00am

Wed Dec 11, 11:10pm

Wed Dec 11, 11:00pm

Wed Dec 11, 10:10pm

Wed Dec 11, 10:00pm

Wed Dec 11, 9:10pm

Wed Dec 11, 9:00pm

Wed Dec 11, 8:10pm

Wed Dec 11, 8:00pm

Wed Dec 11, 7:10pm

Wed Dec 11, 7:00pm

Wed Dec 11, 6:10pm

Wed Dec 11, 6:00pm

Wed Dec 11, 5:10pm

Wed Dec 11, 5:01pm

Wed Dec 11, 4:10pm

Wed Dec 11, 4:00pm

Wed Dec 11, 3:10pm

Wed Dec 11, 3:01pm

Wed Dec 11, 2:10pm

Wed Dec 11, 2:00pm

Wed Dec 11, 1:10pm

Wed Dec 11, 1:00pm

Wed Dec 11, 12:10pm

Wed Dec 11, 12:00pm

Wed Dec 11, 11:10am

Wed Dec 11, 11:00am

Wed Dec 11, 10:10am

Wed Dec 11, 10:00am

Wed Dec 11, 9:10am

Wed Dec 11, 9:00am

Wed Dec 11, 8:10am

Wed Dec 11, 8:00am

Wed Dec 11, 7:10am

Wed Dec 11, 7:00am

Wed Dec 11, 6:10am

Wed Dec 11, 6:00am

Wed Dec 11, 5:10am

Wed Dec 11, 5:00am

Wed Dec 11, 4:10am

Wed Dec 11, 4:00am

Wed Dec 11, 3:10am

Wed Dec 11, 3:01am

Wed Dec 11, 2:10am

Wed Dec 11, 2:01am

Wed Dec 11, 1:10am

Wed Dec 11, 1:00am

Wed Dec 11, 12:10am

Wed Dec 11, 12:00am

Tue Dec 10, 11:10pm

Tue Dec 10, 11:00pm

Tue Dec 10, 10:10pm

Tue Dec 10, 10:00pm

Tue Dec 10, 9:10pm

Tue Dec 10, 9:01pm

Tue Dec 10, 8:10pm

Tue Dec 10, 8:00pm

Tue Dec 10, 7:10pm

Tue Dec 10, 7:01pm

Tue Dec 10, 6:10pm

Tue Dec 10, 6:01pm

Tue Dec 10, 5:10pm

Tue Dec 10, 5:00pm

Tue Dec 10, 4:10pm

Tue Dec 10, 4:01pm

Tue Dec 10, 3:10pm

Tue Dec 10, 3:01pm

Tue Dec 10, 2:10pm

Tue Dec 10, 2:01pm

Tue Dec 10, 1:10pm

Tue Dec 10, 1:00pm

Tue Dec 10, 12:10pm

Tue Dec 10, 12:00pm

Tue Dec 10, 11:10am

Tue Dec 10, 11:00am

Tue Dec 10, 10:10am

Tue Dec 10, 10:00am

Tue Dec 10, 9:10am

Tue Dec 10, 9:01am

Tue Dec 10, 8:10am

Tue Dec 10, 8:00am

Tue Dec 10, 7:10am

Tue Dec 10, 7:00am

Tue Dec 10, 6:10am

Tue Dec 10, 6:00am

Tue Dec 10, 5:10am

Tue Dec 10, 5:00am

Tue Dec 10, 4:10am

Tue Dec 10, 4:00am

Tue Dec 10, 3:10am

Tue Dec 10, 3:00am

Tue Dec 10, 2:10am

Tue Dec 10, 2:01am

Tue Dec 10, 1:10am

Tue Dec 10, 1:00am

Tue Dec 10, 12:10am

Tue Dec 10, 12:01am

Mon Dec 9, 11:10pm

Mon Dec 9, 11:01pm

Mon Dec 9, 10:10pm

Mon Dec 9, 10:00pm

Mon Dec 9, 9:10pm

Mon Dec 9, 9:01pm

Mon Dec 9, 8:10pm

Mon Dec 9, 8:01pm

Mon Dec 9, 7:10pm

Mon Dec 9, 7:00pm

Mon Dec 9, 6:10pm

Mon Dec 9, 6:00pm

Mon Dec 9, 5:10pm

Meta data:

ID: 0d865c9f-3df2-441d-9b0a-57171b131289
Link: https://api.weather.gov/products/0d865c9f-3df2-441d-9b0a-57171b131289